Total_Precipitation_Accumulation
0.61 0.74 0.64 0.43 0.31 0.25 0.19 0.21 0.19 0.13 0.12 0.21 0.19 0.11 0.04 0.02 0.04 0.05 0.04 0.04 0.05 0.05 0.04 0.07 0.14 0.21 0.24 0.30 0.35 0.44 0.60 0.64 0.72 0.79 0.87 0.93 0.86 0.87 0.88 0.83 0.80 0.76 0.79 0.80
0.75 0.61 0.34 0.24 0.20 0.22 0.24 0.26 0.21 0.15 0.13 0.22 0.20 0.11 0.04 0.03 0.03 0.04 0.04 0.04 0.05 0.05 0.05 0.08 0.13 0.17 0.23 0.27 0.29 0.35 0.51 0.63 0.68 0.71 0.73 0.76 0.79 0.81 0.84 0.81 0.83 0.83 0.81 0.85
0.63 0.37 0.20 0.28 0.33 0.31 0.26 0.22 0.18 0.17 0.18 0.22 0.23 0.15 0.04 0.02 0.03 0.04 0.05 0.06 0.06 0.04 0.05 0.07 0.09 0.12 0.17 0.24 0.26 0.30 0.42 0.57 0.66 0.71 0.83 0.87 0.94 1.01 1.00 0.93 0.85 0.82 0.84 0.85
0.48 0.25 0.23 0.34 0.40 0.36 0.28 0.13 0.14 0.19 0.32 0.33 0.25 0.27 0.07 0.04 0.04 0.05 0.05 0.05 0.05 0.05 0.05 0.06 0.07 0.09 0.14 0.19 0.23 0.28 0.42 0.56 0.64 0.72 0.82 0.87 0.86 0.90 0.91 0.85 0.80 0.77 0.79 0.83
0.55 0.29 0.29 0.34 0.31 0.32 0.25 0.12 0.15 0.22 0.35 0.41 0.27 0.32 0.12 0.05 0.06 0.07 0.08 0.08 0.07 0.06 0.05 0.05 0.07 0.08 0.13 0.20 0.24 0.29 0.40 0.56 0.67 0.74 0.76 0.80 0.79 0.75 0.80 0.89 0.89 0.85 0.82 0.82
0.43 0.28 0.34 0.29 0.22 0.29 0.30 0.29 0.34 0.38 0.62 0.77 0.27 0.25 0.14 0.10 0.11 0.10 0.09 0.09 0.09 0.09 0.07 0.07 0.08 0.08 0.12 0.21 0.29 0.35 0.40 0.50 0.67 0.79 0.80 0.77 0.77 0.76 0.81 0.89 0.94 0.96 0.91 0.86
0.64 0.39 0.32 0.29 0.39 0.49 0.59 0.83 1.29 1.32 1.25 0.67 0.11 0.16 0.17 0.10 0.08 0.10 0.10 0.09 0.08 0.10 0.11 0.10 0.10 0.11 0.12 0.19 0.28 0.36 0.42 0.45 0.56 0.76 0.83 0.78 0.77 0.75 0.74 0.80 0.87 0.90 0.94 0.92
0.73 0.55 0.34 0.31 0.42 0.62 0.69 0.84 1.06 0.94 0.54 0.17 0.05 0.11 0.13 0.07 0.05 0.05 0.07 0.08 0.07 0.07 0.09 0.10 0.11 0.14 0.15 0.17 0.25 0.35 0.45 0.48 0.53 0.64 0.77 0.80 0.83 0.81 0.75 0.75 0.81 0.85 0.85 0.86
0.72 0.47 0.24 0.22 0.24 0.33 0.55 0.66 0.55 0.68 0.44 0.24 0.13 0.08 0.08 0.04 0.04 0.03 0.03 0.06 0.09 0.09 0.11 0.13 0.13 0.15 0.16 0.18 0.25 0.31 0.41 0.53 0.55 0.57 0.71 0.81 0.86 0.86 0.78 0.74 0.77 0.82 0.84 0.86
0.79 0.65 0.30 0.26 0.33 0.39 0.44 0.49 0.68 1.05 0.87 0.39 0.15 0.09 0.12 0.08 0.05 0.04 0.03 0.04 0.07 0.09 0.11 0.13 0.17 0.17 0.16 0.18 0.23 0.29 0.33 0.46 0.60 0.60 0.65 0.80 0.86 0.89 0.88 0.82 0.78 0.77 0.77 0.84
0.78 0.89 0.55 0.45 0.58 0.54 0.49 0.64 0.84 0.96 0.78 0.51 0.25 0.16 0.16 0.09 0.06 0.07 0.06 0.05 0.06 0.08 0.09 0.13 0.18 0.20 0.18 0.17 0.22 0.30 0.34 0.42 0.57 0.67 0.66 0.72 0.82 0.87 0.93 0.92 0.84 0.78 0.77 0.79
0.75 1.05 0.79 0.47 0.39 0.35 0.43 0.54 0.67 0.91 0.74 0.44 0.34 0.19 0.11 0.08 0.06 0.07 0.07 0.05 0.05 0.07 0.09 0.13 0.21 0.22 0.21 0.21 0.23 0.31 0.31 0.35 0.46 0.63 0.73 0.71 0.76 0.88 0.90 0.84 0.81 0.84 0.81 0.80
1.18 1.57 1.32 0.93 0.72 0.60 0.68 0.59 0.57 0.61 0.62 0.49 0.38 0.17 0.09 0.07 0.05 0.05 0.06 0.06 0.05 0.05 0.07 0.11 0.18 0.21 0.23 0.23 0.26 0.34 0.33 0.29 0.34 0.53 0.67 0.77 0.80 0.85 0.91 0.86 0.78 0.83 0.87 0.85
1.62 1.81 1.20 0.96 0.73 0.65 0.63 0.51 0.49 0.70 0.86 0.46 0.19 0.13 0.09 0.07 0.06 0.06 0.06 0.07 0.07 0.05 0.06 0.07 0.11 0.14 0.18 0.18 0.23 0.28 0.32 0.29 0.27 0.39 0.56 0.67 0.77 0.83 0.87 0.89 0.87 0.85 0.85 0.87
1.70 1.66 0.69 0.34 0.27 0.33 0.36 0.31 0.34 0.51 0.51 0.40 0.14 0.09 0.11 0.11 0.10 0.09 0.09 0.09 0.08 0.07 0.07 0.07 0.06 0.09 0.12 0.14 0.18 0.22 0.27 0.29 0.28 0.30 0.40 0.56 0.66 0.77 0.85 0.89 0.92 0.94 0.95 0.88
1.58 1.53 0.74 0.39 0.20 0.27 0.30 0.21 0.21 0.23 0.23 0.21 0.12 0.08 0.06 0.07 0.08 0.08 0.08 0.10 0.11 0.10 0.09 0.08 0.07 0.08 0.09 0.11 0.14 0.19 0.23 0.25 0.27 0.30 0.32 0.43 0.59 0.72 0.81 0.87 0.95 0.97 0.98 0.98
1.45 1.44 1.19 0.71 0.30 0.55 0.61 0.28 0.22 0.20 0.19 0.19 0.20 0.16 0.08 0.05 0.06 0.09 0.11 0.12 0.14 0.12 0.11 0.09 0.08 0.08 0.09 0.09 0.11 0.17 0.21 0.22 0.22 0.23 0.25 0.33 0.45 0.63 0.75 0.82 0.90 1.02 1.03 1.01
1.06 1.23 1.53 1.09 0.82 1.14 0.55 0.22 0.19 0.22 0.25 0.22 0.21 0.17 0.11 0.07 0.06 0.08 0.13 0.16 0.13 0.12 0.11 0.10 0.09 0.09 0.10 0.08 0.09 0.15 0.18 0.20 0.22 0.20 0.20 0.23 0.31 0.45 0.62 0.77 0.87 0.97 1.07 1.07
0.58 1.09 1.72 1.50 1.15 0.68 0.26 0.18 0.26 0.30 0.32 0.25 0.20 0.14 0.09 0.06 0.06 0.08 0.09 0.12 0.13 0.12 0.12 0.10 0.10 0.10 0.10 0.08 0.09 0.13 0.14 0.17 0.19 0.18 0.19 0.19 0.21 0.31 0.47 0.62 0.76 0.86 0.98 1.02
0.57 1.03 1.82 1.66 1.25 0.64 0.29 0.16 0.18 0.26 0.41 0.23 0.19 0.18 0.14 0.12 0.15 0.13 0.10 0.10 0.11 0.11 0.11 0.11 0.10 0.11 0.09 0.08 0.11 0.13 0.13 0.15 0.16 0.16 0.16 0.16 0.18 0.23 0.35 0.48 0.62 0.78 0.90 0.96
0.91 1.41 1.68 1.30 1.07 0.52 0.25 0.17 0.18 0.42 0.50 0.25 0.22 0.21 0.20 0.21 0.21 0.15 0.11 0.10 0.11 0.11 0.11 0.12 0.12 0.12 0.10 0.09 0.13 0.17 0.15 0.14 0.17 0.17 0.16 0.15 0.16 0.19 0.28 0.42 0.55 0.73 0.86 0.95
0.71 0.96 0.94 0.86 1.00 0.58 0.26 0.22 0.40 0.49 0.29 0.25 0.22 0.20 0.20 0.19 0.16 0.13 0.12 0.12 0.11 0.11 0.11 0.14 0.14 0.12 0.11 0.12 0.15 0.20 0.18 0.17 0.18 0.17 0.17 0.16 0.15 0.18 0.25 0.40 0.54 0.68 0.84 0.96
0.50 0.65 0.68 0.60 0.53 0.35 0.29 0.33 0.36 0.30 0.28 0.25 0.23 0.20 0.19 0.19 0.17 0.15 0.13 0.13 0.13 0.13 0.14 0.15 0.17 0.15 0.14 0.15 0.19 0.22 0.21 0.21 0.19 0.18 0.17 0.17 0.17 0.20 0.25 0.36 0.52 0.71 0.82 0.94
0.36 0.33 0.44 0.44 0.31 0.23 0.22 0.23 0.25 0.25 0.25 0.23 0.21 0.20 0.18 0.18 0.17 0.16 0.14 0.15 0.16 0.17 0.16 0.16 0.16 0.17 0.19 0.21 0.23 0.24 0.24 0.24 0.20 0.19 0.18 0.19 0.21 0.25 0.28 0.36 0.47 0.66 0.82 0.94
0.33 0.31 0.35 0.37 0.27 0.22 0.18 0.17 0.17 0.18 0.17 0.16 0.16 0.17 0.18 0.16 0.14 0.13 0.13 0.14 0.16 0.18 0.17 0.16 0.16 0.17 0.22 0.26 0.25 0.24 0.26 0.26 0.23 0.21 0.20 0.21 0.25 0.30 0.33 0.40 0.48 0.60 0.72 0.94
0.23 0.27 0.34 0.36 0.27 0.28 0.22 0.15 0.13 0.12 0.13 0.14 0.13 0.13 0.13 0.13 0.12 0.10 0.12 0.15 0.16 0.17 0.14 0.14 0.16 0.16 0.19 0.24 0.26 0.25 0.26 0.27 0.26 0.25 0.24 0.26 0.30 0.32 0.34 0.43 0.53 0.63 0.71 0.81